Index of /20260501/WXO-DD/model_rdps/10km/18/047
Name Last modified Size Description
Parent Directory -
20260501T18Z_MSC_RDPS_AbsoluteVorticity_IsbL-0250_RLatLon0.09_PT047H.grib2 2026-05-01 20:55 614K
20260501T18Z_MSC_RDPS_AbsoluteVorticity_IsbL-0500_RLatLon0.09_PT047H.grib2 2026-05-01 20:55 699K
20260501T18Z_MSC_RDPS_AbsoluteVorticity_IsbL-0700_RLatLon0.09_PT047H.grib2 2026-05-01 20:55 618K
20260501T18Z_MSC_RDPS_AbsoluteVorticity_IsbL-0850_RLatLon0.09_PT047H.grib2 2026-05-01 20:55 791K
20260501T18Z_MSC_RDPS_AirTemp_AGL-120m_RLatLon0.09_PT047H.grib2 2026-05-01 20:55 397K
20260501T18Z_MSC_RDPS_AirTemp_AGL-2m_RLatLon0.09_PT047H.grib2 2026-05-01 20:55 637K
20260501T18Z_MSC_RDPS_AirTemp_AGL-40m_RLatLon0.09_PT047H.grib2 2026-05-01 20:55 407K
20260501T18Z_MSC_RDPS_AirTemp_AGL-80m_RLatLon0.09_PT047H.grib2 2026-05-01 20:55 402K
20260501T18Z_MSC_RDPS_AirTemp_IsbL-0001_RLatLon0.09_PT047H.grib2 2026-05-01 20:55 327K
20260501T18Z_MSC_RDPS_AirTemp_IsbL-0005_RLatLon0.09_PT047H.grib2 2026-05-01 20:55 290K
20260501T18Z_MSC_RDPS_AirTemp_IsbL-0010_RLatLon0.09_PT047H.grib2 2026-05-01 20:55 301K
20260501T18Z_MSC_RDPS_AirTemp_IsbL-0020_RLatLon0.09_PT047H.grib2 2026-05-01 20:55 415K
20260501T18Z_MSC_RDPS_AirTemp_IsbL-0030_RLatLon0.09_PT047H.grib2 2026-05-01 20:55 341K
20260501T18Z_MSC_RDPS_AirTemp_IsbL-0050_RLatLon0.09_PT047H.grib2 2026-05-01 20:55 316K
20260501T18Z_MSC_RDPS_AirTemp_IsbL-0100_RLatLon0.09_PT047H.grib2 2026-05-01 20:55 423K
20260501T18Z_MSC_RDPS_AirTemp_IsbL-0150_RLatLon0.09_PT047H.grib2 2026-05-01 20:55 418K
20260501T18Z_MSC_RDPS_AirTemp_IsbL-0175_RLatLon0.09_PT047H.grib2 2026-05-01 20:55 406K
20260501T18Z_MSC_RDPS_AirTemp_IsbL-0200_RLatLon0.09_PT047H.grib2 2026-05-01 20:55 414K
20260501T18Z_MSC_RDPS_AirTemp_IsbL-0225_RLatLon0.09_PT047H.grib2 2026-05-01 20:55 419K
20260501T18Z_MSC_RDPS_AirTemp_IsbL-0250_RLatLon0.09_PT047H.grib2 2026-05-01 20:55 425K
20260501T18Z_MSC_RDPS_AirTemp_IsbL-0275_RLatLon0.09_PT047H.grib2 2026-05-01 20:55 405K
20260501T18Z_MSC_RDPS_AirTemp_IsbL-0300_RLatLon0.09_PT047H.grib2 2026-05-01 20:55 410K
20260501T18Z_MSC_RDPS_AirTemp_IsbL-0350_RLatLon0.09_PT047H.grib2 2026-05-01 20:55 424K
20260501T18Z_MSC_RDPS_AirTemp_IsbL-0400_RLatLon0.09_PT047H.grib2 2026-05-01 20:55 426K
20260501T18Z_MSC_RDPS_AirTemp_IsbL-0450_RLatLon0.09_PT047H.grib2 2026-05-01 20:55 433K
20260501T18Z_MSC_RDPS_AirTemp_IsbL-0500_RLatLon0.09_PT047H.grib2 2026-05-01 20:55 408K
20260501T18Z_MSC_RDPS_AirTemp_IsbL-0550_RLatLon0.09_PT047H.grib2 2026-05-01 20:55 425K
20260501T18Z_MSC_RDPS_AirTemp_IsbL-0600_RLatLon0.09_PT047H.grib2 2026-05-01 20:55 441K
20260501T18Z_MSC_RDPS_AirTemp_IsbL-0650_RLatLon0.09_PT047H.grib2 2026-05-01 20:55 457K
20260501T18Z_MSC_RDPS_AirTemp_IsbL-0700_RLatLon0.09_PT047H.grib2 2026-05-01 20:55 375K
20260501T18Z_MSC_RDPS_AirTemp_IsbL-0750_RLatLon0.09_PT047H.grib2 2026-05-01 20:55 523K
20260501T18Z_MSC_RDPS_AirTemp_IsbL-0800_RLatLon0.09_PT047H.grib2 2026-05-01 20:55 457K
20260501T18Z_MSC_RDPS_AirTemp_IsbL-0850_RLatLon0.09_PT047H.grib2 2026-05-01 20:55 510K
20260501T18Z_MSC_RDPS_AirTemp_IsbL-0875_RLatLon0.09_PT047H.grib2 2026-05-01 20:55 530K
20260501T18Z_MSC_RDPS_AirTemp_IsbL-0900_RLatLon0.09_PT047H.grib2 2026-05-01 20:55 541K
20260501T18Z_MSC_RDPS_AirTemp_IsbL-0925_RLatLon0.09_PT047H.grib2 2026-05-01 20:55 535K
20260501T18Z_MSC_RDPS_AirTemp_IsbL-0950_RLatLon0.09_PT047H.grib2 2026-05-01 20:55 537K
20260501T18Z_MSC_RDPS_AirTemp_IsbL-0970_RLatLon0.09_PT047H.grib2 2026-05-01 20:55 530K
20260501T18Z_MSC_RDPS_AirTemp_IsbL-0985_RLatLon0.09_PT047H.grib2 2026-05-01 20:55 521K
20260501T18Z_MSC_RDPS_AirTemp_IsbL-1000_RLatLon0.09_PT047H.grib2 2026-05-01 20:55 507K
20260501T18Z_MSC_RDPS_AirTemp_IsbL-1015_RLatLon0.09_PT047H.grib2 2026-05-01 20:55 507K
20260501T18Z_MSC_RDPS_Albedo_Sfc_RLatLon0.09_PT047H.grib2 2026-05-01 20:55 156K
20260501T18Z_MSC_RDPS_CAPE_Sfc_RLatLon0.09_PT047H.grib2 2026-05-01 20:55 1.7M
20260501T18Z_MSC_RDPS_CIN_Sfc_RLatLon0.09_PT047H.grib2 2026-05-01 20:55 1.1M
20260501T18Z_MSC_RDPS_CloudWater_EAtm_RLatLon0.09_PT047H.grib2 2026-05-01 20:55 220K
20260501T18Z_MSC_RDPS_ConvectivePrecip-Accum_Sfc_RLatLon0.09_PT047H.grib2 2026-05-01 20:55 1.0M
20260501T18Z_MSC_RDPS_DewPointDepression_AGL-2m_RLatLon0.09_PT047H.grib2 2026-05-01 20:55 428K
20260501T18Z_MSC_RDPS_DewPointDepression_IsbL-0001_RLatLon0.09_PT047H.grib2 2026-05-01 20:55 193
20260501T18Z_MSC_RDPS_DewPointDepression_IsbL-0005_RLatLon0.09_PT047H.grib2 2026-05-01 20:55 193
20260501T18Z_MSC_RDPS_DewPointDepression_IsbL-0010_RLatLon0.09_PT047H.grib2 2026-05-01 20:55 193
20260501T18Z_MSC_RDPS_DewPointDepression_IsbL-0020_RLatLon0.09_PT047H.grib2 2026-05-01 20:55 193
20260501T18Z_MSC_RDPS_DewPointDepression_IsbL-0030_RLatLon0.09_PT047H.grib2 2026-05-01 20:55 193
20260501T18Z_MSC_RDPS_DewPointDepression_IsbL-0050_RLatLon0.09_PT047H.grib2 2026-05-01 20:55 102K
20260501T18Z_MSC_RDPS_DewPointDepression_IsbL-0100_RLatLon0.09_PT047H.grib2 2026-05-01 20:55 118K
20260501T18Z_MSC_RDPS_DewPointDepression_IsbL-0150_RLatLon0.09_PT047H.grib2 2026-05-01 20:55 147K
20260501T18Z_MSC_RDPS_DewPointDepression_IsbL-0175_RLatLon0.09_PT047H.grib2 2026-05-01 20:55 181K
20260501T18Z_MSC_RDPS_DewPointDepression_IsbL-0200_RLatLon0.09_PT047H.grib2 2026-05-01 20:55 221K
20260501T18Z_MSC_RDPS_DewPointDepression_IsbL-0225_RLatLon0.09_PT047H.grib2 2026-05-01 20:55 260K
20260501T18Z_MSC_RDPS_DewPointDepression_IsbL-0250_RLatLon0.09_PT047H.grib2 2026-05-01 20:55 296K
20260501T18Z_MSC_RDPS_DewPointDepression_IsbL-0275_RLatLon0.09_PT047H.grib2 2026-05-01 20:55 305K
20260501T18Z_MSC_RDPS_DewPointDepression_IsbL-0300_RLatLon0.09_PT047H.grib2 2026-05-01 20:55 323K
20260501T18Z_MSC_RDPS_DewPointDepression_IsbL-0350_RLatLon0.09_PT047H.grib2 2026-05-01 20:55 331K
20260501T18Z_MSC_RDPS_DewPointDepression_IsbL-0400_RLatLon0.09_PT047H.grib2 2026-05-01 20:55 340K
20260501T18Z_MSC_RDPS_DewPointDepression_IsbL-0450_RLatLon0.09_PT047H.grib2 2026-05-01 20:55 344K
20260501T18Z_MSC_RDPS_DewPointDepression_IsbL-0500_RLatLon0.09_PT047H.grib2 2026-05-01 20:55 347K
20260501T18Z_MSC_RDPS_DewPointDepression_IsbL-0550_RLatLon0.09_PT047H.grib2 2026-05-01 20:55 356K
20260501T18Z_MSC_RDPS_DewPointDepression_IsbL-0600_RLatLon0.09_PT047H.grib2 2026-05-01 20:55 364K
20260501T18Z_MSC_RDPS_DewPointDepression_IsbL-0650_RLatLon0.09_PT047H.grib2 2026-05-01 20:55 373K
20260501T18Z_MSC_RDPS_DewPointDepression_IsbL-0700_RLatLon0.09_PT047H.grib2 2026-05-01 20:55 386K
20260501T18Z_MSC_RDPS_DewPointDepression_IsbL-0750_RLatLon0.09_PT047H.grib2 2026-05-01 20:55 410K
20260501T18Z_MSC_RDPS_DewPointDepression_IsbL-0800_RLatLon0.09_PT047H.grib2 2026-05-01 20:55 446K
20260501T18Z_MSC_RDPS_DewPointDepression_IsbL-0850_RLatLon0.09_PT047H.grib2 2026-05-01 20:55 482K
20260501T18Z_MSC_RDPS_DewPointDepression_IsbL-0875_RLatLon0.09_PT047H.grib2 2026-05-01 20:55 480K
20260501T18Z_MSC_RDPS_DewPointDepression_IsbL-0900_RLatLon0.09_PT047H.grib2 2026-05-01 20:55 472K
20260501T18Z_MSC_RDPS_DewPointDepression_IsbL-0925_RLatLon0.09_PT047H.grib2 2026-05-01 20:55 458K
20260501T18Z_MSC_RDPS_DewPointDepression_IsbL-0950_RLatLon0.09_PT047H.grib2 2026-05-01 20:55 455K
20260501T18Z_MSC_RDPS_DewPointDepression_IsbL-0970_RLatLon0.09_PT047H.grib2 2026-05-01 20:55 448K
20260501T18Z_MSC_RDPS_DewPointDepression_IsbL-0985_RLatLon0.09_PT047H.grib2 2026-05-01 20:55 446K
20260501T18Z_MSC_RDPS_DewPointDepression_IsbL-1000_RLatLon0.09_PT047H.grib2 2026-05-01 20:55 441K
20260501T18Z_MSC_RDPS_DewPointDepression_IsbL-1015_RLatLon0.09_PT047H.grib2 2026-05-01 20:55 434K
20260501T18Z_MSC_RDPS_DewPoint_AGL-2m_RLatLon0.09_PT047H.grib2 2026-05-01 20:55 407K
20260501T18Z_MSC_RDPS_DownwardLongwaveRadiationFlux-Accum_Sfc_RLatLon0.09_PT047H.grib2 2026-05-01 20:55 370K
20260501T18Z_MSC_RDPS_DownwardShortwaveRadiationFlux-Accum_NTAtm_RLatLon0.09_PT047H.grib2 2026-05-01 20:55 170K
20260501T18Z_MSC_RDPS_DownwardShortwaveRadiationFlux-Accum_Sfc_RLatLon0.09_PT047H.grib2 2026-05-01 20:55 601K
20260501T18Z_MSC_RDPS_FreezingRain-Accum1h_Sfc_RLatLon0.09_PT047H.grib2 2026-05-01 20:55 11K
20260501T18Z_MSC_RDPS_FreezingRain-Accum_Sfc_RLatLon0.09_PT047H.grib2 2026-05-01 20:55 154K
20260501T18Z_MSC_RDPS_GeopotentialHeight_IsbL-0001_RLatLon0.09_PT047H.grib2 2026-05-01 20:55 352K
20260501T18Z_MSC_RDPS_GeopotentialHeight_IsbL-0005_RLatLon0.09_PT047H.grib2 2026-05-01 20:55 305K
20260501T18Z_MSC_RDPS_GeopotentialHeight_IsbL-0010_RLatLon0.09_PT047H.grib2 2026-05-01 20:55 306K
20260501T18Z_MSC_RDPS_GeopotentialHeight_IsbL-0020_RLatLon0.09_PT047H.grib2 2026-05-01 20:55 403K
20260501T18Z_MSC_RDPS_GeopotentialHeight_IsbL-0030_RLatLon0.09_PT047H.grib2 2026-05-01 20:55 405K
20260501T18Z_MSC_RDPS_GeopotentialHeight_IsbL-0050_RLatLon0.09_PT047H.grib2 2026-05-01 20:55 311K
20260501T18Z_MSC_RDPS_GeopotentialHeight_IsbL-0100_RLatLon0.09_PT047H.grib2 2026-05-01 20:55 287K
20260501T18Z_MSC_RDPS_GeopotentialHeight_IsbL-0150_RLatLon0.09_PT047H.grib2 2026-05-01 20:55 230K
20260501T18Z_MSC_RDPS_GeopotentialHeight_IsbL-0175_RLatLon0.09_PT047H.grib2 2026-05-01 20:55 233K
20260501T18Z_MSC_RDPS_GeopotentialHeight_IsbL-0200_RLatLon0.09_PT047H.grib2 2026-05-01 20:55 264K
20260501T18Z_MSC_RDPS_GeopotentialHeight_IsbL-0225_RLatLon0.09_PT047H.grib2 2026-05-01 20:55 265K
20260501T18Z_MSC_RDPS_GeopotentialHeight_IsbL-0250_RLatLon0.09_PT047H.grib2 2026-05-01 20:55 266K
20260501T18Z_MSC_RDPS_GeopotentialHeight_IsbL-0275_RLatLon0.09_PT047H.grib2 2026-05-01 20:55 266K
20260501T18Z_MSC_RDPS_GeopotentialHeight_IsbL-0300_RLatLon0.09_PT047H.grib2 2026-05-01 20:55 235K
20260501T18Z_MSC_RDPS_GeopotentialHeight_IsbL-0350_RLatLon0.09_PT047H.grib2 2026-05-01 20:55 231K
20260501T18Z_MSC_RDPS_GeopotentialHeight_IsbL-0400_RLatLon0.09_PT047H.grib2 2026-05-01 20:55 227K
20260501T18Z_MSC_RDPS_GeopotentialHeight_IsbL-0450_RLatLon0.09_PT047H.grib2 2026-05-01 20:55 297K
20260501T18Z_MSC_RDPS_GeopotentialHeight_IsbL-0500_RLatLon0.09_PT047H.grib2 2026-05-01 20:55 292K
20260501T18Z_MSC_RDPS_GeopotentialHeight_IsbL-0550_RLatLon0.09_PT047H.grib2 2026-05-01 20:55 288K
20260501T18Z_MSC_RDPS_GeopotentialHeight_IsbL-0600_RLatLon0.09_PT047H.grib2 2026-05-01 20:55 283K
20260501T18Z_MSC_RDPS_GeopotentialHeight_IsbL-0650_RLatLon0.09_PT047H.grib2 2026-05-01 20:55 283K
20260501T18Z_MSC_RDPS_GeopotentialHeight_IsbL-0700_RLatLon0.09_PT047H.grib2 2026-05-01 20:55 256K
20260501T18Z_MSC_RDPS_GeopotentialHeight_IsbL-0750_RLatLon0.09_PT047H.grib2 2026-05-01 20:55 259K
20260501T18Z_MSC_RDPS_GeopotentialHeight_IsbL-0800_RLatLon0.09_PT047H.grib2 2026-05-01 20:55 352K
20260501T18Z_MSC_RDPS_GeopotentialHeight_IsbL-0850_RLatLon0.09_PT047H.grib2 2026-05-01 20:55 361K
20260501T18Z_MSC_RDPS_GeopotentialHeight_IsbL-0875_RLatLon0.09_PT047H.grib2 2026-05-01 20:55 365K
20260501T18Z_MSC_RDPS_GeopotentialHeight_IsbL-0900_RLatLon0.09_PT047H.grib2 2026-05-01 20:55 369K
20260501T18Z_MSC_RDPS_GeopotentialHeight_IsbL-0925_RLatLon0.09_PT047H.grib2 2026-05-01 20:55 370K
20260501T18Z_MSC_RDPS_GeopotentialHeight_IsbL-0950_RLatLon0.09_PT047H.grib2 2026-05-01 20:55 374K
20260501T18Z_MSC_RDPS_GeopotentialHeight_IsbL-0970_RLatLon0.09_PT047H.grib2 2026-05-01 20:55 380K
20260501T18Z_MSC_RDPS_GeopotentialHeight_IsbL-0985_RLatLon0.09_PT047H.grib2 2026-05-01 20:55 390K
20260501T18Z_MSC_RDPS_GeopotentialHeight_IsbL-1000_RLatLon0.09_PT047H.grib2 2026-05-01 20:55 403K
20260501T18Z_MSC_RDPS_GeopotentialHeight_IsbL-1015_RLatLon0.09_PT047H.grib2 2026-05-01 20:55 417K
20260501T18Z_MSC_RDPS_Humidex_Sfc_RLatLon0.09_PT047H.grib2 2026-05-01 20:55 2.4M
20260501T18Z_MSC_RDPS_IcePellets-Accum1h_Sfc_RLatLon0.09_PT047H.grib2 2026-05-01 20:55 1.2K
20260501T18Z_MSC_RDPS_IcePellets-Accum_Sfc_RLatLon0.09_PT047H.grib2 2026-05-01 20:55 21K
20260501T18Z_MSC_RDPS_KIndex_Sfc_RLatLon0.09_PT047H.grib2 2026-05-01 20:55 2.3M
20260501T18Z_MSC_RDPS_LatentHeatNetFlux_Sfc_RLatLon0.09_PT047H.grib2 2026-05-01 20:55 402K
20260501T18Z_MSC_RDPS_LiftedIndex-MU-VT_IsbL-0500_RLatLon0.09_PT047H.grib2 2026-05-01 20:55 2.4M
20260501T18Z_MSC_RDPS_NetLongwaveRadiationFlux-Accum_Sfc_RLatLon0.09_PT047H.grib2 2026-05-01 20:55 546K
20260501T18Z_MSC_RDPS_NetShortwaveRadiationFlux-Accum_Sfc_RLatLon0.09_PT047H.grib2 2026-05-01 20:55 600K
20260501T18Z_MSC_RDPS_PlanetaryBoundaryLayerHeight_Sfc_RLatLon0.09_PT047H.grib2 2026-05-01 20:55 1.0M
20260501T18Z_MSC_RDPS_Precip-Accum1h_Sfc_RLatLon0.09_PT047H.grib2 2026-05-01 20:55 1.2M
20260501T18Z_MSC_RDPS_Precip-Accum_Sfc_RLatLon0.09_PT047H.grib2 2026-05-01 20:55 2.1M
20260501T18Z_MSC_RDPS_PrecipRate_Sfc_RLatLon0.09_PT047H.grib2 2026-05-01 20:55 175K
20260501T18Z_MSC_RDPS_PrecipType-Instant_Sfc_RLatLon0.09_PT047H.grib2 2026-05-01 20:55 578K
20260501T18Z_MSC_RDPS_Pressure-Trend3h_Sfc_RLatLon0.09_PT047H.grib2 2026-05-01 20:55 1.2M
20260501T18Z_MSC_RDPS_Pressure_MSL_RLatLon0.09_PT047H.grib2 2026-05-01 20:55 332K
20260501T18Z_MSC_RDPS_Pressure_PVU-1.5_RLatLon0.09_PT047H.grib2 2026-05-01 20:55 2.3M
20260501T18Z_MSC_RDPS_Pressure_PVU-1_RLatLon0.09_PT047H.grib2 2026-05-01 20:55 2.4M
20260501T18Z_MSC_RDPS_Pressure_PVU-2_RLatLon0.09_PT047H.grib2 2026-05-01 20:55 2.4M
20260501T18Z_MSC_RDPS_Pressure_Sfc_RLatLon0.09_PT047H.grib2 2026-05-01 20:55 501K
20260501T18Z_MSC_RDPS_RadiativeTemp_Sfc_RLatLon0.09_PT047H.grib2 2026-05-01 20:55 326K
20260501T18Z_MSC_RDPS_Rain-Accum1h_Sfc_RLatLon0.09_PT047H.grib2 2026-05-01 20:55 596K
20260501T18Z_MSC_RDPS_Rain-Accum_Sfc_RLatLon0.09_PT047H.grib2 2026-05-01 20:55 1.7M
20260501T18Z_MSC_RDPS_RelativeHumidity_AGL-2m_RLatLon0.09_PT047H.grib2 2026-05-01 20:55 1.0M
20260501T18Z_MSC_RDPS_RelativeHumidity_IsbL-0010_RLatLon0.09_PT047H.grib2 2026-05-01 20:55 627K
20260501T18Z_MSC_RDPS_RelativeHumidity_IsbL-0020_RLatLon0.09_PT047H.grib2 2026-05-01 20:55 667K
20260501T18Z_MSC_RDPS_RelativeHumidity_IsbL-0030_RLatLon0.09_PT047H.grib2 2026-05-01 20:55 606K
20260501T18Z_MSC_RDPS_RelativeHumidity_IsbL-0050_RLatLon0.09_PT047H.grib2 2026-05-01 20:55 360K
20260501T18Z_MSC_RDPS_RelativeHumidity_IsbL-0100_RLatLon0.09_PT047H.grib2 2026-05-01 20:55 277K
20260501T18Z_MSC_RDPS_RelativeHumidity_IsbL-0150_RLatLon0.09_PT047H.grib2 2026-05-01 20:55 414K
20260501T18Z_MSC_RDPS_RelativeHumidity_IsbL-0175_RLatLon0.09_PT047H.grib2 2026-05-01 20:55 475K
20260501T18Z_MSC_RDPS_RelativeHumidity_IsbL-0200_RLatLon0.09_PT047H.grib2 2026-05-01 20:55 555K
20260501T18Z_MSC_RDPS_RelativeHumidity_IsbL-0225_RLatLon0.09_PT047H.grib2 2026-05-01 20:55 619K
20260501T18Z_MSC_RDPS_RelativeHumidity_IsbL-0250_RLatLon0.09_PT047H.grib2 2026-05-01 20:55 680K
20260501T18Z_MSC_RDPS_RelativeHumidity_IsbL-0275_RLatLon0.09_PT047H.grib2 2026-05-01 20:55 702K
20260501T18Z_MSC_RDPS_RelativeHumidity_IsbL-0300_RLatLon0.09_PT047H.grib2 2026-05-01 20:55 743K
20260501T18Z_MSC_RDPS_RelativeHumidity_IsbL-0350_RLatLon0.09_PT047H.grib2 2026-05-01 20:55 772K
20260501T18Z_MSC_RDPS_RelativeHumidity_IsbL-0400_RLatLon0.09_PT047H.grib2 2026-05-01 20:55 787K
20260501T18Z_MSC_RDPS_RelativeHumidity_IsbL-0450_RLatLon0.09_PT047H.grib2 2026-05-01 20:55 791K
20260501T18Z_MSC_RDPS_RelativeHumidity_IsbL-0500_RLatLon0.09_PT047H.grib2 2026-05-01 20:55 794K
20260501T18Z_MSC_RDPS_RelativeHumidity_IsbL-0550_RLatLon0.09_PT047H.grib2 2026-05-01 20:55 811K
20260501T18Z_MSC_RDPS_RelativeHumidity_IsbL-0600_RLatLon0.09_PT047H.grib2 2026-05-01 20:55 827K
20260501T18Z_MSC_RDPS_RelativeHumidity_IsbL-0650_RLatLon0.09_PT047H.grib2 2026-05-01 20:55 842K
20260501T18Z_MSC_RDPS_RelativeHumidity_IsbL-0700_RLatLon0.09_PT047H.grib2 2026-05-01 20:55 868K
20260501T18Z_MSC_RDPS_RelativeHumidity_IsbL-0750_RLatLon0.09_PT047H.grib2 2026-05-01 20:55 921K
20260501T18Z_MSC_RDPS_RelativeHumidity_IsbL-0800_RLatLon0.09_PT047H.grib2 2026-05-01 20:55 1.0M
20260501T18Z_MSC_RDPS_RelativeHumidity_IsbL-0850_RLatLon0.09_PT047H.grib2 2026-05-01 20:55 1.0M
20260501T18Z_MSC_RDPS_RelativeHumidity_IsbL-0875_RLatLon0.09_PT047H.grib2 2026-05-01 20:55 1.1M
20260501T18Z_MSC_RDPS_RelativeHumidity_IsbL-0900_RLatLon0.09_PT047H.grib2 2026-05-01 20:55 1.1M
20260501T18Z_MSC_RDPS_RelativeHumidity_IsbL-0925_RLatLon0.09_PT047H.grib2 2026-05-01 20:55 1.1M
20260501T18Z_MSC_RDPS_RelativeHumidity_IsbL-0950_RLatLon0.09_PT047H.grib2 2026-05-01 20:55 1.1M
20260501T18Z_MSC_RDPS_RelativeHumidity_IsbL-0970_RLatLon0.09_PT047H.grib2 2026-05-01 20:55 1.1M
20260501T18Z_MSC_RDPS_RelativeHumidity_IsbL-0985_RLatLon0.09_PT047H.grib2 2026-05-01 20:55 1.0M
20260501T18Z_MSC_RDPS_RelativeHumidity_IsbL-1000_RLatLon0.09_PT047H.grib2 2026-05-01 20:55 1.0M
20260501T18Z_MSC_RDPS_RelativeHumidity_IsbL-1015_RLatLon0.09_PT047H.grib2 2026-05-01 20:55 1.0M
20260501T18Z_MSC_RDPS_Runoff-Accum_Sfc_RLatLon0.09_PT047H.grib2 2026-05-01 20:55 74K
20260501T18Z_MSC_RDPS_SWEATIndex_Sfc_RLatLon0.09_PT047H.grib2 2026-05-01 20:55 2.4M
20260501T18Z_MSC_RDPS_SeeingIndex_EAtm_RLatLon0.09_PT047H.grib2 2026-05-01 20:55 1.0M
20260501T18Z_MSC_RDPS_SensibleHeatNetFlux_Sfc_RLatLon0.09_PT047H.grib2 2026-05-01 20:55 369K
20260501T18Z_MSC_RDPS_ShowalterIndex_IsbL-0500_RLatLon0.09_PT047H.grib2 2026-05-01 20:55 2.6M
20260501T18Z_MSC_RDPS_SkyTransparencyIndex_EAtm_RLatLon0.09_PT047H.grib2 2026-05-01 20:55 718K
20260501T18Z_MSC_RDPS_Snow-Accum1h_Sfc_RLatLon0.09_PT047H.grib2 2026-05-01 20:55 525K
20260501T18Z_MSC_RDPS_Snow-Accum_Sfc_RLatLon0.09_PT047H.grib2 2026-05-01 20:55 700K
20260501T18Z_MSC_RDPS_SnowDensity_Sfc_RLatLon0.09_PT047H.grib2 2026-05-01 20:55 172K
20260501T18Z_MSC_RDPS_SnowDepth_Sfc_RLatLon0.09_PT047H.grib2 2026-05-01 20:55 654K
20260501T18Z_MSC_RDPS_SoilTemp_DBS-0to10cm_RLatLon0.09_PT047H.grib2 2026-05-01 20:55 239K
20260501T18Z_MSC_RDPS_SoilTemp_Sfc_RLatLon0.09_PT047H.grib2 2026-05-01 20:55 295K
20260501T18Z_MSC_RDPS_SoilVolumetricIceContent_Sfc_RLatLon0.09_PT047H.grib2 2026-05-01 20:55 157K
20260501T18Z_MSC_RDPS_SoilVolumetricWaterContent_DBS-0to10cm_RLatLon0.09_PT047H.grib2 2026-05-01 20:55 273K
20260501T18Z_MSC_RDPS_SoilVolumetricWaterContent_DBS-0to1cm_RLatLon0.09_PT047H.grib2 2026-05-01 20:55 343K
20260501T18Z_MSC_RDPS_SpecificHumidity_AGL-120m_RLatLon0.09_PT047H.grib2 2026-05-01 20:55 505K
20260501T18Z_MSC_RDPS_SpecificHumidity_AGL-2m_RLatLon0.09_PT047H.grib2 2026-05-01 20:55 676K
20260501T18Z_MSC_RDPS_SpecificHumidity_AGL-40m_RLatLon0.09_PT047H.grib2 2026-05-01 20:55 511K
20260501T18Z_MSC_RDPS_SpecificHumidity_AGL-80m_RLatLon0.09_PT047H.grib2 2026-05-01 20:55 507K
20260501T18Z_MSC_RDPS_SpecificHumidity_IsbL-0001_RLatLon0.09_PT047H.grib2 2026-05-01 20:55 374K
20260501T18Z_MSC_RDPS_SpecificHumidity_IsbL-0005_RLatLon0.09_PT047H.grib2 2026-05-01 20:55 369K
20260501T18Z_MSC_RDPS_SpecificHumidity_IsbL-0010_RLatLon0.09_PT047H.grib2 2026-05-01 20:55 398K
20260501T18Z_MSC_RDPS_SpecificHumidity_IsbL-0020_RLatLon0.09_PT047H.grib2 2026-05-01 20:55 377K
20260501T18Z_MSC_RDPS_SpecificHumidity_IsbL-0030_RLatLon0.09_PT047H.grib2 2026-05-01 20:55 481K
20260501T18Z_MSC_RDPS_SpecificHumidity_IsbL-0050_RLatLon0.09_PT047H.grib2 2026-05-01 20:55 481K
20260501T18Z_MSC_RDPS_SpecificHumidity_IsbL-0100_RLatLon0.09_PT047H.grib2 2026-05-01 20:55 532K
20260501T18Z_MSC_RDPS_SpecificHumidity_IsbL-0150_RLatLon0.09_PT047H.grib2 2026-05-01 20:55 452K
20260501T18Z_MSC_RDPS_SpecificHumidity_IsbL-0175_RLatLon0.09_PT047H.grib2 2026-05-01 20:55 436K
20260501T18Z_MSC_RDPS_SpecificHumidity_IsbL-0200_RLatLon0.09_PT047H.grib2 2026-05-01 20:55 455K
20260501T18Z_MSC_RDPS_SpecificHumidity_IsbL-0225_RLatLon0.09_PT047H.grib2 2026-05-01 20:55 456K
20260501T18Z_MSC_RDPS_SpecificHumidity_IsbL-0250_RLatLon0.09_PT047H.grib2 2026-05-01 20:55 555K
20260501T18Z_MSC_RDPS_SpecificHumidity_IsbL-0275_RLatLon0.09_PT047H.grib2 2026-05-01 20:55 469K
20260501T18Z_MSC_RDPS_SpecificHumidity_IsbL-0300_RLatLon0.09_PT047H.grib2 2026-05-01 20:55 567K
20260501T18Z_MSC_RDPS_SpecificHumidity_IsbL-0350_RLatLon0.09_PT047H.grib2 2026-05-01 20:55 567K
20260501T18Z_MSC_RDPS_SpecificHumidity_IsbL-0400_RLatLon0.09_PT047H.grib2 2026-05-01 20:55 522K
20260501T18Z_MSC_RDPS_SpecificHumidity_IsbL-0450_RLatLon0.09_PT047H.grib2 2026-05-01 20:55 570K
20260501T18Z_MSC_RDPS_SpecificHumidity_IsbL-0500_RLatLon0.09_PT047H.grib2 2026-05-01 20:55 502K
20260501T18Z_MSC_RDPS_SpecificHumidity_IsbL-0550_RLatLon0.09_PT047H.grib2 2026-05-01 20:55 557K
20260501T18Z_MSC_RDPS_SpecificHumidity_IsbL-0600_RLatLon0.09_PT047H.grib2 2026-05-01 20:55 622K
20260501T18Z_MSC_RDPS_SpecificHumidity_IsbL-0650_RLatLon0.09_PT047H.grib2 2026-05-01 20:55 541K
20260501T18Z_MSC_RDPS_SpecificHumidity_IsbL-0700_RLatLon0.09_PT047H.grib2 2026-05-01 20:55 587K
20260501T18Z_MSC_RDPS_SpecificHumidity_IsbL-0750_RLatLon0.09_PT047H.grib2 2026-05-01 20:55 646K
20260501T18Z_MSC_RDPS_SpecificHumidity_IsbL-0800_RLatLon0.09_PT047H.grib2 2026-05-01 20:55 732K
20260501T18Z_MSC_RDPS_SpecificHumidity_IsbL-0850_RLatLon0.09_PT047H.grib2 2026-05-01 20:55 814K
20260501T18Z_MSC_RDPS_SpecificHumidity_IsbL-0875_RLatLon0.09_PT047H.grib2 2026-05-01 20:55 840K
20260501T18Z_MSC_RDPS_SpecificHumidity_IsbL-0900_RLatLon0.09_PT047H.grib2 2026-05-01 20:55 714K
20260501T18Z_MSC_RDPS_SpecificHumidity_IsbL-0925_RLatLon0.09_PT047H.grib2 2026-05-01 20:55 714K
20260501T18Z_MSC_RDPS_SpecificHumidity_IsbL-0950_RLatLon0.09_PT047H.grib2 2026-05-01 20:55 718K
20260501T18Z_MSC_RDPS_SpecificHumidity_IsbL-0970_RLatLon0.09_PT047H.grib2 2026-05-01 20:55 710K
20260501T18Z_MSC_RDPS_SpecificHumidity_IsbL-0985_RLatLon0.09_PT047H.grib2 2026-05-01 20:55 706K
20260501T18Z_MSC_RDPS_SpecificHumidity_IsbL-1000_RLatLon0.09_PT047H.grib2 2026-05-01 20:55 701K
20260501T18Z_MSC_RDPS_SpecificHumidity_IsbL-1015_RLatLon0.09_PT047H.grib2 2026-05-01 20:55 691K
20260501T18Z_MSC_RDPS_SpecificHumidity_Sfc_RLatLon0.09_PT047H.grib2 2026-05-01 20:55 341K
20260501T18Z_MSC_RDPS_StormRelativeHelicity_EtaL-10000_RLatLon0.09_PT047H.grib2 2026-05-01 20:55 1.0M
20260501T18Z_MSC_RDPS_StormSeverityIndex_EtaL-10000_RLatLon0.09_PT047H.grib2 2026-05-01 20:55 1.2M
20260501T18Z_MSC_RDPS_Thickness_IsbL-0850to0700_RLatLon0.09_PT047H.grib2 2026-05-01 20:55 178K
20260501T18Z_MSC_RDPS_Thickness_IsbL-1000to0500_RLatLon0.09_PT047H.grib2 2026-05-01 20:55 199K
20260501T18Z_MSC_RDPS_Thickness_IsbL-1000to0850_RLatLon0.09_PT047H.grib2 2026-05-01 20:55 267K
20260501T18Z_MSC_RDPS_TotalCloudCover_Sfc_RLatLon0.09_PT047H.grib2 2026-05-01 20:55 658K
20260501T18Z_MSC_RDPS_TotalTotalsIndex_Sfc_RLatLon0.09_PT047H.grib2 2026-05-01 20:55 2.4M
20260501T18Z_MSC_RDPS_UVIndex-ClearSky_Sfc_RLatLon0.09_PT047H.grib2 2026-05-01 20:55 221K
20260501T18Z_MSC_RDPS_UVIndex_Sfc_RLatLon0.09_PT047H.grib2 2026-05-01 20:55 514K
20260501T18Z_MSC_RDPS_UpwardLongwaveRadiationFlux_NTAtm_RLatLon0.09_PT047H.grib2 2026-05-01 20:55 495K
20260501T18Z_MSC_RDPS_UpwardShortwaveRadiationFlux_NTAtm_RLatLon0.09_PT047H.grib2 2026-05-01 20:55 549K
20260501T18Z_MSC_RDPS_VerticalVelocity_IsbL-0250_RLatLon0.09_PT047H.grib2 2026-05-01 20:55 579K
20260501T18Z_MSC_RDPS_VerticalVelocity_IsbL-0500_RLatLon0.09_PT047H.grib2 2026-05-01 20:55 677K
20260501T18Z_MSC_RDPS_VerticalVelocity_IsbL-0700_RLatLon0.09_PT047H.grib2 2026-05-01 20:55 596K
20260501T18Z_MSC_RDPS_VerticalVelocity_IsbL-0850_RLatLon0.09_PT047H.grib2 2026-05-01 20:55 705K
20260501T18Z_MSC_RDPS_VerticalWindShear_EtaL-6500_RLatLon0.09_PT047H.grib2 2026-05-01 20:55 1.2M
20260501T18Z_MSC_RDPS_WindChill_Sfc_RLatLon0.09_PT047H.grib2 2026-05-01 20:55 1.1M
20260501T18Z_MSC_RDPS_WindDir_AGL-10m_RLatLon0.09_PT047H.grib2 2026-05-01 20:55 1.0M
20260501T18Z_MSC_RDPS_WindDir_AGL-120m_RLatLon0.09_PT047H.grib2 2026-05-01 20:55 619K
20260501T18Z_MSC_RDPS_WindDir_AGL-40m_RLatLon0.09_PT047H.grib2 2026-05-01 20:55 641K
20260501T18Z_MSC_RDPS_WindDir_AGL-80m_RLatLon0.09_PT047H.grib2 2026-05-01 20:55 628K
20260501T18Z_MSC_RDPS_WindDir_IsbL-0001_RLatLon0.09_PT047H.grib2 2026-05-01 20:55 301K
20260501T18Z_MSC_RDPS_WindDir_IsbL-0005_RLatLon0.09_PT047H.grib2 2026-05-01 20:55 374K
20260501T18Z_MSC_RDPS_WindDir_IsbL-0010_RLatLon0.09_PT047H.grib2 2026-05-01 20:55 389K
20260501T18Z_MSC_RDPS_WindDir_IsbL-0020_RLatLon0.09_PT047H.grib2 2026-05-01 20:55 442K
20260501T18Z_MSC_RDPS_WindDir_IsbL-0030_RLatLon0.09_PT047H.grib2 2026-05-01 20:55 427K
20260501T18Z_MSC_RDPS_WindDir_IsbL-0050_RLatLon0.09_PT047H.grib2 2026-05-01 20:55 427K
20260501T18Z_MSC_RDPS_WindDir_IsbL-0100_RLatLon0.09_PT047H.grib2 2026-05-01 20:55 409K
20260501T18Z_MSC_RDPS_WindDir_IsbL-0150_RLatLon0.09_PT047H.grib2 2026-05-01 20:55 412K
20260501T18Z_MSC_RDPS_WindDir_IsbL-0175_RLatLon0.09_PT047H.grib2 2026-05-01 20:55 430K
20260501T18Z_MSC_RDPS_WindDir_IsbL-0200_RLatLon0.09_PT047H.grib2 2026-05-01 20:55 449K
20260501T18Z_MSC_RDPS_WindDir_IsbL-0225_RLatLon0.09_PT047H.grib2 2026-05-01 20:55 453K
20260501T18Z_MSC_RDPS_WindDir_IsbL-0250_RLatLon0.09_PT047H.grib2 2026-05-01 20:55 454K
20260501T18Z_MSC_RDPS_WindDir_IsbL-0275_RLatLon0.09_PT047H.grib2 2026-05-01 20:55 481K
20260501T18Z_MSC_RDPS_WindDir_IsbL-0300_RLatLon0.09_PT047H.grib2 2026-05-01 20:55 478K
20260501T18Z_MSC_RDPS_WindDir_IsbL-0350_RLatLon0.09_PT047H.grib2 2026-05-01 20:55 498K
20260501T18Z_MSC_RDPS_WindDir_IsbL-0400_RLatLon0.09_PT047H.grib2 2026-05-01 20:55 518K
20260501T18Z_MSC_RDPS_WindDir_IsbL-0450_RLatLon0.09_PT047H.grib2 2026-05-01 20:55 527K
20260501T18Z_MSC_RDPS_WindDir_IsbL-0500_RLatLon0.09_PT047H.grib2 2026-05-01 20:55 536K
20260501T18Z_MSC_RDPS_WindDir_IsbL-0550_RLatLon0.09_PT047H.grib2 2026-05-01 20:55 542K
20260501T18Z_MSC_RDPS_WindDir_IsbL-0600_RLatLon0.09_PT047H.grib2 2026-05-01 20:55 560K
20260501T18Z_MSC_RDPS_WindDir_IsbL-0650_RLatLon0.09_PT047H.grib2 2026-05-01 20:55 597K
20260501T18Z_MSC_RDPS_WindDir_IsbL-0700_RLatLon0.09_PT047H.grib2 2026-05-01 20:55 639K
20260501T18Z_MSC_RDPS_WindDir_IsbL-0750_RLatLon0.09_PT047H.grib2 2026-05-01 20:55 689K
20260501T18Z_MSC_RDPS_WindDir_IsbL-0800_RLatLon0.09_PT047H.grib2 2026-05-01 20:55 761K
20260501T18Z_MSC_RDPS_WindDir_IsbL-0850_RLatLon0.09_PT047H.grib2 2026-05-01 20:55 853K
20260501T18Z_MSC_RDPS_WindDir_IsbL-0875_RLatLon0.09_PT047H.grib2 2026-05-01 20:55 891K
20260501T18Z_MSC_RDPS_WindDir_IsbL-0900_RLatLon0.09_PT047H.grib2 2026-05-01 20:55 909K
20260501T18Z_MSC_RDPS_WindDir_IsbL-0925_RLatLon0.09_PT047H.grib2 2026-05-01 20:55 919K
20260501T18Z_MSC_RDPS_WindDir_IsbL-0950_RLatLon0.09_PT047H.grib2 2026-05-01 20:55 918K
20260501T18Z_MSC_RDPS_WindDir_IsbL-0970_RLatLon0.09_PT047H.grib2 2026-05-01 20:55 924K
20260501T18Z_MSC_RDPS_WindDir_IsbL-0985_RLatLon0.09_PT047H.grib2 2026-05-01 20:55 934K
20260501T18Z_MSC_RDPS_WindDir_IsbL-1000_RLatLon0.09_PT047H.grib2 2026-05-01 20:55 948K
20260501T18Z_MSC_RDPS_WindDir_IsbL-1015_RLatLon0.09_PT047H.grib2 2026-05-01 20:55 965K
20260501T18Z_MSC_RDPS_WindGust-Max_AGL-10m_RLatLon0.09_PT047H.grib2 2026-05-01 20:55 1.0M
20260501T18Z_MSC_RDPS_WindGust-Min_AGL-10m_RLatLon0.09_PT047H.grib2 2026-05-01 20:55 1.0M
20260501T18Z_MSC_RDPS_WindGust_AGL-10m_RLatLon0.09_PT047H.grib2 2026-05-01 20:55 1.0M
20260501T18Z_MSC_RDPS_WindSpeed_AGL-10m_RLatLon0.09_PT047H.grib2 2026-05-01 20:55 845K
20260501T18Z_MSC_RDPS_WindSpeed_AGL-120m_RLatLon0.09_PT047H.grib2 2026-05-01 20:55 538K
20260501T18Z_MSC_RDPS_WindSpeed_AGL-40m_RLatLon0.09_PT047H.grib2 2026-05-01 20:55 672K
20260501T18Z_MSC_RDPS_WindSpeed_AGL-80m_RLatLon0.09_PT047H.grib2 2026-05-01 20:55 538K
20260501T18Z_MSC_RDPS_WindSpeed_IsbL-0001_RLatLon0.09_PT047H.grib2 2026-05-01 20:55 258K
20260501T18Z_MSC_RDPS_WindSpeed_IsbL-0005_RLatLon0.09_PT047H.grib2 2026-05-01 20:55 349K
20260501T18Z_MSC_RDPS_WindSpeed_IsbL-0010_RLatLon0.09_PT047H.grib2 2026-05-01 20:55 400K
20260501T18Z_MSC_RDPS_WindSpeed_IsbL-0020_RLatLon0.09_PT047H.grib2 2026-05-01 20:55 325K
20260501T18Z_MSC_RDPS_WindSpeed_IsbL-0030_RLatLon0.09_PT047H.grib2 2026-05-01 20:55 324K
20260501T18Z_MSC_RDPS_WindSpeed_IsbL-0050_RLatLon0.09_PT047H.grib2 2026-05-01 20:55 352K
20260501T18Z_MSC_RDPS_WindSpeed_IsbL-0100_RLatLon0.09_PT047H.grib2 2026-05-01 20:55 475K
20260501T18Z_MSC_RDPS_WindSpeed_IsbL-0150_RLatLon0.09_PT047H.grib2 2026-05-01 20:55 381K
20260501T18Z_MSC_RDPS_WindSpeed_IsbL-0175_RLatLon0.09_PT047H.grib2 2026-05-01 20:55 425K
20260501T18Z_MSC_RDPS_WindSpeed_IsbL-0200_RLatLon0.09_PT047H.grib2 2026-05-01 20:55 442K
20260501T18Z_MSC_RDPS_WindSpeed_IsbL-0225_RLatLon0.09_PT047H.grib2 2026-05-01 20:55 451K
20260501T18Z_MSC_RDPS_WindSpeed_IsbL-0250_RLatLon0.09_PT047H.grib2 2026-05-01 20:55 453K
20260501T18Z_MSC_RDPS_WindSpeed_IsbL-0275_RLatLon0.09_PT047H.grib2 2026-05-01 20:55 469K
20260501T18Z_MSC_RDPS_WindSpeed_IsbL-0300_RLatLon0.09_PT047H.grib2 2026-05-01 20:55 465K
20260501T18Z_MSC_RDPS_WindSpeed_IsbL-0350_RLatLon0.09_PT047H.grib2 2026-05-01 20:55 460K
20260501T18Z_MSC_RDPS_WindSpeed_IsbL-0400_RLatLon0.09_PT047H.grib2 2026-05-01 20:55 464K
20260501T18Z_MSC_RDPS_WindSpeed_IsbL-0450_RLatLon0.09_PT047H.grib2 2026-05-01 20:55 465K
20260501T18Z_MSC_RDPS_WindSpeed_IsbL-0500_RLatLon0.09_PT047H.grib2 2026-05-01 20:55 462K
20260501T18Z_MSC_RDPS_WindSpeed_IsbL-0550_RLatLon0.09_PT047H.grib2 2026-05-01 20:55 580K
20260501T18Z_MSC_RDPS_WindSpeed_IsbL-0600_RLatLon0.09_PT047H.grib2 2026-05-01 20:55 587K
20260501T18Z_MSC_RDPS_WindSpeed_IsbL-0650_RLatLon0.09_PT047H.grib2 2026-05-01 20:55 607K
20260501T18Z_MSC_RDPS_WindSpeed_IsbL-0700_RLatLon0.09_PT047H.grib2 2026-05-01 20:55 633K
20260501T18Z_MSC_RDPS_WindSpeed_IsbL-0750_RLatLon0.09_PT047H.grib2 2026-05-01 20:55 665K
20260501T18Z_MSC_RDPS_WindSpeed_IsbL-0800_RLatLon0.09_PT047H.grib2 2026-05-01 20:55 761K
20260501T18Z_MSC_RDPS_WindSpeed_IsbL-0850_RLatLon0.09_PT047H.grib2 2026-05-01 20:55 823K
20260501T18Z_MSC_RDPS_WindSpeed_IsbL-0875_RLatLon0.09_PT047H.grib2 2026-05-01 20:55 848K
20260501T18Z_MSC_RDPS_WindSpeed_IsbL-0900_RLatLon0.09_PT047H.grib2 2026-05-01 20:55 858K
20260501T18Z_MSC_RDPS_WindSpeed_IsbL-0925_RLatLon0.09_PT047H.grib2 2026-05-01 20:55 867K
20260501T18Z_MSC_RDPS_WindSpeed_IsbL-0950_RLatLon0.09_PT047H.grib2 2026-05-01 20:55 866K
20260501T18Z_MSC_RDPS_WindSpeed_IsbL-0970_RLatLon0.09_PT047H.grib2 2026-05-01 20:55 863K
20260501T18Z_MSC_RDPS_WindSpeed_IsbL-0985_RLatLon0.09_PT047H.grib2 2026-05-01 20:55 858K
20260501T18Z_MSC_RDPS_WindSpeed_IsbL-1000_RLatLon0.09_PT047H.grib2 2026-05-01 20:55 853K
20260501T18Z_MSC_RDPS_WindSpeed_IsbL-1015_RLatLon0.09_PT047H.grib2 2026-05-01 20:55 844K
20260501T18Z_MSC_RDPS_WindU_AGL-10m_RLatLon0.09_PT047H.grib2 2026-05-01 20:55 437K
20260501T18Z_MSC_RDPS_WindU_AGL-120m_RLatLon0.09_PT047H.grib2 2026-05-01 20:55 419K
20260501T18Z_MSC_RDPS_WindU_AGL-40m_RLatLon0.09_PT047H.grib2 2026-05-01 20:55 539K
20260501T18Z_MSC_RDPS_WindU_AGL-80m_RLatLon0.09_PT047H.grib2 2026-05-01 20:55 537K
20260501T18Z_MSC_RDPS_WindU_IsbL-0001_RLatLon0.09_PT047H.grib2 2026-05-01 20:55 296K
20260501T18Z_MSC_RDPS_WindU_IsbL-0005_RLatLon0.09_PT047H.grib2 2026-05-01 20:55 283K
20260501T18Z_MSC_RDPS_WindU_IsbL-0010_RLatLon0.09_PT047H.grib2 2026-05-01 20:55 298K
20260501T18Z_MSC_RDPS_WindU_IsbL-0020_RLatLon0.09_PT047H.grib2 2026-05-01 20:55 316K
20260501T18Z_MSC_RDPS_WindU_IsbL-0030_RLatLon0.09_PT047H.grib2 2026-05-01 20:55 355K
20260501T18Z_MSC_RDPS_WindU_IsbL-0050_RLatLon0.09_PT047H.grib2 2026-05-01 20:55 380K
20260501T18Z_MSC_RDPS_WindU_IsbL-0100_RLatLon0.09_PT047H.grib2 2026-05-01 20:55 430K
20260501T18Z_MSC_RDPS_WindU_IsbL-0150_RLatLon0.09_PT047H.grib2 2026-05-01 20:55 395K
20260501T18Z_MSC_RDPS_WindU_IsbL-0175_RLatLon0.09_PT047H.grib2 2026-05-01 20:55 418K
20260501T18Z_MSC_RDPS_WindU_IsbL-0200_RLatLon0.09_PT047H.grib2 2026-05-01 20:55 337K
20260501T18Z_MSC_RDPS_WindU_IsbL-0225_RLatLon0.09_PT047H.grib2 2026-05-01 20:55 343K
20260501T18Z_MSC_RDPS_WindU_IsbL-0250_RLatLon0.09_PT047H.grib2 2026-05-01 20:55 344K
20260501T18Z_MSC_RDPS_WindU_IsbL-0275_RLatLon0.09_PT047H.grib2 2026-05-01 20:55 358K
20260501T18Z_MSC_RDPS_WindU_IsbL-0300_RLatLon0.09_PT047H.grib2 2026-05-01 20:55 354K
20260501T18Z_MSC_RDPS_WindU_IsbL-0350_RLatLon0.09_PT047H.grib2 2026-05-01 20:55 362K
20260501T18Z_MSC_RDPS_WindU_IsbL-0400_RLatLon0.09_PT047H.grib2 2026-05-01 20:55 468K
20260501T18Z_MSC_RDPS_WindU_IsbL-0450_RLatLon0.09_PT047H.grib2 2026-05-01 20:55 469K
20260501T18Z_MSC_RDPS_WindU_IsbL-0500_RLatLon0.09_PT047H.grib2 2026-05-01 20:55 469K
20260501T18Z_MSC_RDPS_WindU_IsbL-0550_RLatLon0.09_PT047H.grib2 2026-05-01 20:55 451K
20260501T18Z_MSC_RDPS_WindU_IsbL-0600_RLatLon0.09_PT047H.grib2 2026-05-01 20:55 459K
20260501T18Z_MSC_RDPS_WindU_IsbL-0650_RLatLon0.09_PT047H.grib2 2026-05-01 20:55 477K
20260501T18Z_MSC_RDPS_WindU_IsbL-0700_RLatLon0.09_PT047H.grib2 2026-05-01 20:55 502K
20260501T18Z_MSC_RDPS_WindU_IsbL-0750_RLatLon0.09_PT047H.grib2 2026-05-01 20:55 530K
20260501T18Z_MSC_RDPS_WindU_IsbL-0800_RLatLon0.09_PT047H.grib2 2026-05-01 20:55 573K
20260501T18Z_MSC_RDPS_WindU_IsbL-0850_RLatLon0.09_PT047H.grib2 2026-05-01 20:55 637K
20260501T18Z_MSC_RDPS_WindU_IsbL-0875_RLatLon0.09_PT047H.grib2 2026-05-01 20:55 657K
20260501T18Z_MSC_RDPS_WindU_IsbL-0900_RLatLon0.09_PT047H.grib2 2026-05-01 20:55 665K
20260501T18Z_MSC_RDPS_WindU_IsbL-0925_RLatLon0.09_PT047H.grib2 2026-05-01 20:55 664K
20260501T18Z_MSC_RDPS_WindU_IsbL-0950_RLatLon0.09_PT047H.grib2 2026-05-01 20:55 660K
20260501T18Z_MSC_RDPS_WindU_IsbL-0970_RLatLon0.09_PT047H.grib2 2026-05-01 20:55 659K
20260501T18Z_MSC_RDPS_WindU_IsbL-0985_RLatLon0.09_PT047H.grib2 2026-05-01 20:55 656K
20260501T18Z_MSC_RDPS_WindU_IsbL-1000_RLatLon0.09_PT047H.grib2 2026-05-01 20:55 792K
20260501T18Z_MSC_RDPS_WindU_IsbL-1015_RLatLon0.09_PT047H.grib2 2026-05-01 20:55 786K
20260501T18Z_MSC_RDPS_WindV_AGL-10m_RLatLon0.09_PT047H.grib2 2026-05-01 20:55 436K
20260501T18Z_MSC_RDPS_WindV_AGL-120m_RLatLon0.09_PT047H.grib2 2026-05-01 20:55 419K
20260501T18Z_MSC_RDPS_WindV_AGL-40m_RLatLon0.09_PT047H.grib2 2026-05-01 20:55 540K
20260501T18Z_MSC_RDPS_WindV_AGL-80m_RLatLon0.09_PT047H.grib2 2026-05-01 20:55 537K
20260501T18Z_MSC_RDPS_WindV_IsbL-0001_RLatLon0.09_PT047H.grib2 2026-05-01 20:55 250K
20260501T18Z_MSC_RDPS_WindV_IsbL-0005_RLatLon0.09_PT047H.grib2 2026-05-01 20:55 287K
20260501T18Z_MSC_RDPS_WindV_IsbL-0010_RLatLon0.09_PT047H.grib2 2026-05-01 20:55 391K
20260501T18Z_MSC_RDPS_WindV_IsbL-0020_RLatLon0.09_PT047H.grib2 2026-05-01 20:55 320K
20260501T18Z_MSC_RDPS_WindV_IsbL-0030_RLatLon0.09_PT047H.grib2 2026-05-01 20:55 318K
20260501T18Z_MSC_RDPS_WindV_IsbL-0050_RLatLon0.09_PT047H.grib2 2026-05-01 20:55 345K
20260501T18Z_MSC_RDPS_WindV_IsbL-0100_RLatLon0.09_PT047H.grib2 2026-05-01 20:55 333K
20260501T18Z_MSC_RDPS_WindV_IsbL-0150_RLatLon0.09_PT047H.grib2 2026-05-01 20:55 397K
20260501T18Z_MSC_RDPS_WindV_IsbL-0175_RLatLon0.09_PT047H.grib2 2026-05-01 20:55 419K
20260501T18Z_MSC_RDPS_WindV_IsbL-0200_RLatLon0.09_PT047H.grib2 2026-05-01 20:55 337K
20260501T18Z_MSC_RDPS_WindV_IsbL-0225_RLatLon0.09_PT047H.grib2 2026-05-01 20:55 368K
20260501T18Z_MSC_RDPS_WindV_IsbL-0250_RLatLon0.09_PT047H.grib2 2026-05-01 20:55 369K
20260501T18Z_MSC_RDPS_WindV_IsbL-0275_RLatLon0.09_PT047H.grib2 2026-05-01 20:55 380K
20260501T18Z_MSC_RDPS_WindV_IsbL-0300_RLatLon0.09_PT047H.grib2 2026-05-01 20:55 377K
20260501T18Z_MSC_RDPS_WindV_IsbL-0350_RLatLon0.09_PT047H.grib2 2026-05-01 20:55 359K
20260501T18Z_MSC_RDPS_WindV_IsbL-0400_RLatLon0.09_PT047H.grib2 2026-05-01 20:55 363K
20260501T18Z_MSC_RDPS_WindV_IsbL-0450_RLatLon0.09_PT047H.grib2 2026-05-01 20:55 364K
20260501T18Z_MSC_RDPS_WindV_IsbL-0500_RLatLon0.09_PT047H.grib2 2026-05-01 20:55 468K
20260501T18Z_MSC_RDPS_WindV_IsbL-0550_RLatLon0.09_PT047H.grib2 2026-05-01 20:55 468K
20260501T18Z_MSC_RDPS_WindV_IsbL-0600_RLatLon0.09_PT047H.grib2 2026-05-01 20:55 473K
20260501T18Z_MSC_RDPS_WindV_IsbL-0650_RLatLon0.09_PT047H.grib2 2026-05-01 20:55 490K
20260501T18Z_MSC_RDPS_WindV_IsbL-0700_RLatLon0.09_PT047H.grib2 2026-05-01 20:55 513K
20260501T18Z_MSC_RDPS_WindV_IsbL-0750_RLatLon0.09_PT047H.grib2 2026-05-01 20:55 541K
20260501T18Z_MSC_RDPS_WindV_IsbL-0800_RLatLon0.09_PT047H.grib2 2026-05-01 20:55 584K
20260501T18Z_MSC_RDPS_WindV_IsbL-0850_RLatLon0.09_PT047H.grib2 2026-05-01 20:55 636K
20260501T18Z_MSC_RDPS_WindV_IsbL-0875_RLatLon0.09_PT047H.grib2 2026-05-01 20:55 657K
20260501T18Z_MSC_RDPS_WindV_IsbL-0900_RLatLon0.09_PT047H.grib2 2026-05-01 20:55 664K
20260501T18Z_MSC_RDPS_WindV_IsbL-0925_RLatLon0.09_PT047H.grib2 2026-05-01 20:55 663K
20260501T18Z_MSC_RDPS_WindV_IsbL-0950_RLatLon0.09_PT047H.grib2 2026-05-01 20:55 660K
20260501T18Z_MSC_RDPS_WindV_IsbL-0970_RLatLon0.09_PT047H.grib2 2026-05-01 20:55 659K
20260501T18Z_MSC_RDPS_WindV_IsbL-0985_RLatLon0.09_PT047H.grib2 2026-05-01 20:55 656K
20260501T18Z_MSC_RDPS_WindV_IsbL-1000_RLatLon0.09_PT047H.grib2 2026-05-01 20:55 792K
20260501T18Z_MSC_RDPS_WindV_IsbL-1015_RLatLon0.09_PT047H.grib2 2026-05-01 20:55 786K